| time (UTC) | temp F | wind direction | speed knots | gust knots | rain 1hr in | rain 24hr in | rain mn in | humidity % | barometer mb |
| 20260509043739 | 39 | 272 | 0.9 | 1.7 | 0.00 | 0.00 | 0.01 | 68 | 1021.0 |
| 20260509043239 | 40 | 19 | 0.0 | 1.7 | 0.00 | 0.00 | 0.01 | 67 | 1021.0 |
| 20260509042740 | 40 | 347 | 1.7 | 2.6 | 0.00 | 0.00 | 0.01 | 67 | 1021.0 |
| 20260509042240 | 40 | 0 | 1.7 | 3.5 | 0.00 | 0.00 | 0.01 | 66 | 1021.0 |
| 20260509041739 | 41 | 22 | 2.6 | 4.3 | 0.00 | 0.00 | 0.01 | 64 | 1021.0 |
| 20260509041239 | 42 | 4 | 2.6 | 5.2 | 0.00 | 0.00 | 0.01 | 61 | 1021.0 |
| 20260509040739 | 42 | 16 | 3.5 | 5.2 | 0.00 | 0.00 | 0.01 | 58 | 1021.0 |
| 20260509040239 | 42 | 4 | 3.5 | 5.2 | 0.00 | 0.00 | 0.01 | 59 | 1021.0 |
| 20260509035739 | 42 | 6 | 1.7 | 3.5 | 0.00 | 0.00 | 0.01 | 66 | 1021.0 |
| 20260509035239 | 42 | 13 | 2.6 | 5.2 | 0.00 | 0.00 | 0.01 | 69 | 1021.0 |
| 20260509034739 | 42 | 30 | 0.9 | 2.6 | 0.00 | 0.00 | 0.01 | 72 | 1021.0 |
| 20260509034239 | 42 | 343 | 1.7 | 4.3 | 0.01 | 0.00 | 0.01 | 73 | 1021.0 |
| 20260509033740 | 42 | 0 | 6.1 | 8.7 | 0.00 | 0.00 | 0.01 | 73 | 1021.0 |
| 20260509033240 | 43 | 359 | 3.5 | 7.0 | 0.03 | 0.00 | 0.01 | 75 | 1021.0 |
| 20260509032739 | 43 | 355 | 5.2 | 7.8 | 0.02 | 0.00 | 0.01 | 74 | 1021.0 |
| 20260509032239 | 44 | 0 | 4.3 | 7.0 | 0.09 | 0.00 | 0.01 | 72 | 1020.0 |
| 20260509031740 | 44 | 337 | 3.5 | 6.1 | 0.03 | 0.00 | 0.00 | 70 | 1020.0 |
| 20260509031239 | 44 | 343 | 1.7 | 3.5 | 0.00 | 0.00 | 0.00 | 68 | 1020.0 |
| 20260509030739 | 44 | 8 | 2.6 | 3.5 | 0.00 | 0.00 | 0.00 | 66 | 1020.0 |
| 20260509030239 | 44 | 145 | 0.9 | 2.6 | 0.00 | 0.00 | 0.00 | 66 | 1020.0 |
| 20260509025739 | 44 | 250 | 0.9 | 2.6 | 0.00 | 0.00 | 0.00 | 65 | 1020.0 |
| 20260509025239 | 44 | 48 | 0.9 | 2.6 | 0.00 | 0.00 | 0.00 | 64 | 1020.0 |
| 20260509024739 | 43 | 11 | 0.9 | 1.7 | 0.00 | 0.00 | 0.00 | 65 | 1019.0 |
| 20260509024239 | 43 | 246 | 1.7 | 3.5 | 0.00 | 0.00 | 0.00 | 66 | 1019.0 |
| 20260509023739 | 43 | 258 | 1.7 | 3.5 | 0.00 | 0.00 | 0.00 | 65 | 1019.0 |
| 20260509023240 | 43 | 345 | 0.9 | 1.7 | 0.00 | 0.00 | 0.00 | 64 | 1019.0 |
| 20260509022739 | 43 | 188 | 4.3 | 7.0 | 0.00 | 0.00 | 0.00 | 64 | 1018.0 |
| 20260509022239 | 43 | 319 | 3.5 | 4.3 | 0.00 | 0.00 | 0.00 | 66 | 1019.0 |
| 20260509021739 | 43 | 235 | 2.6 | 3.5 | 0.00 | 0.00 | 0.00 | 66 | 1018.0 |
| 20260509021239 | 43 | 349 | 0.9 | 1.7 | 0.00 | 0.00 | 0.00 | 66 | 1018.0 |
| 20260509020739 | 43 | 2 | 1.7 | 2.6 | 0.00 | 0.00 | 0.00 | 65 | 1018.0 |
| 20260509020239 | 43 | 334 | 3.5 | 5.2 | 0.00 | 0.00 | 0.00 | 64 | 1018.0 |
| 20260509015740 | 43 | 1 | 1.7 | 3.5 | 0.00 | 0.00 | 0.00 | 64 | 1018.0 |
| 20260509015239 | 43 | 4 | 3.5 | 6.1 | 0.00 | 0.00 | 0.00 | 66 | 1018.0 |
| 20260509014739 | 43 | 3 | 4.3 | 7.8 | 0.00 | 0.00 | 0.00 | 65 | 1018.0 |
| 20260509014239 | 43 | 2 | 4.3 | 8.7 | 0.00 | 0.00 | 0.00 | 66 | 1018.0 |
| 20260509013739 | 43 | 353 | 5.2 | 9.6 | 0.00 | 0.00 | 0.00 | 65 | 1017.0 |
| 20260509013239 | 43 | 3 | 4.3 | 7.8 | 0.00 | 0.00 | 0.00 | 65 | 1017.0 |
| 20260509012739 | 43 | 2 | 5.2 | 10.4 | 0.00 | 0.00 | 0.00 | 65 | 1017.0 |
| 20260509012240 | 42 | 1 | 7.0 | 14.8 | 0.00 | 0.00 | 0.00 | 66 | 1017.0 |
| 20260509011739 | 42 | 17 | 5.2 | 9.6 | 0.00 | 0.00 | 0.00 | 66 | 1016.0 |
| 20260509011239 | 42 | 355 | 4.3 | 8.7 | 0.00 | 0.00 | 0.00 | 67 | 1016.0 |
| 20260509010740 | 42 | 19 | 3.5 | 5.2 | 0.00 | 0.00 | 0.00 | 67 | 1016.0 |
| 20260509010239 | 43 | 12 | 4.3 | 10.4 | 0.00 | 0.00 | 0.00 | 67 | 1016.0 |
| 20260509005739 | 43 | 5 | 3.5 | 9.6 | 0.00 | 0.00 | 0.00 | 67 | 1016.0 |
| 20260509005239 | 43 | 10 | 3.5 | 7.0 | 0.00 | 0.00 | 0.00 | 67 | 1016.0 |
| 20260509004739 | 44 | 7 | 5.2 | 9.6 | 0.00 | 0.00 | 0.00 | 65 | 1016.0 |
| 20260509004239 | 43 | 11 | 4.3 | 7.8 | 0.00 | 0.00 | 0.00 | 64 | 1016.0 |
| 20260509003739 | 43 | 193 | 0.9 | 1.7 | 0.00 | 0.00 | 0.00 | 66 | 1015.0 |
| 20260509003239 | 42 | 187 | 1.7 | 2.6 | 0.00 | 0.00 | 0.00 | 65 | 1015.0 |
| 20260509002739 | 41 | 189 | 1.7 | 2.6 | 0.00 | 0.00 | 0.00 | 70 | 1015.0 |
| 20260509002239 | 41 | 202 | 1.7 | 2.6 | 0.00 | 0.00 | 0.00 | 75 | 1015.0 |
| 20260509001739 | 40 | 208 | 1.7 | 2.6 | 0.00 | 0.00 | 0.00 | 76 | 1014.0 |
| 20260509001239 | 40 | 202 | 1.7 | 2.6 | 0.00 | 0.00 | 0.00 | 75 | 1014.0 |
| 20260509000739 | 39 | 191 | 0.0 | 0.0 | 0.00 | 0.00 | 0.00 | 78 | 1014.0 |
| 20260509000241 | 38 | 253 | 0.0 | 0.0 | 0.00 | 0.00 | 0.00 | 78 | 1014.0 |
| 20260508235739 | 38 | 320 | 0.9 | 1.7 | 0.00 | 0.00 | 0.00 | 78 | 1014.0 |
| 20260508235239 | 38 | 216 | 0.9 | 1.7 | 0.00 | 0.00 | 0.00 | 78 | 1014.0 |
| 20260508234739 | 38 | 238 | 0.0 | 0.9 | 0.00 | 0.00 | 0.00 | 79 | 1013.0 |
| 20260508234240 | 38 | 224 | 0.0 | 0.9 | 0.00 | 0.00 | 0.00 | 77 | 1013.0 |
| 20260508233739 | 38 | 287 | 0.9 | 1.7 | 0.00 | 0.00 | 0.00 | 75 | 1013.0 |
| 20260508233239 | 38 | 283 | 0.9 | 1.7 | 0.00 | 0.00 | 0.00 | 76 | 1013.0 |
| 20260508232739 | 38 | 301 | 0.0 | 0.9 | 0.00 | 0.00 | 0.00 | 76 | 1013.0 |
| 20260508232240 | 39 | 273 | 1.7 | 1.7 | 0.00 | 0.00 | 0.00 | 75 | 1013.0 |
| 20260508231739 | 39 | 280 | 0.9 | 1.7 | 0.00 | 0.00 | 0.00 | 73 | 1013.0 |
| 20260508231239 | 39 | 328 | 0.9 | 1.7 | 0.00 | 0.00 | 0.00 | 75 | 1012.0 |
| 20260508230740 | 40 | 297 | 0.9 | 1.7 | 0.00 | 0.00 | 0.00 | 73 | 1012.0 |
| 20260508230240 | 40 | 275 | 0.0 | 0.9 | 0.00 | 0.00 | 0.00 | 72 | 1012.0 |
| 20260508225739 | 41 | 259 | 0.0 | 0.9 | 0.00 | 0.00 | 0.00 | 70 | 1012.0 |
| 20260508225240 | 41 | 276 | 0.9 | 0.9 | 0.00 | 0.00 | 0.00 | 72 | 1012.0 |
| 20260508224739 | 41 | 284 | 0.9 | 1.7 | 0.00 | 0.00 | 0.00 | 71 | 1012.0 |
| 20260508224240 | 41 | 225 | 0.0 | 0.9 | 0.00 | 0.00 | 0.00 | 72 | 1012.0 |
| 20260508223739 | 41 | 286 | 1.7 | 1.7 | 0.00 | 0.00 | 0.00 | 72 | 1012.0 |
| 20260508223239 | 42 | 303 | 0.9 | 1.7 | 0.00 | 0.00 | 0.00 | 70 | 1012.0 |
| 20260508222739 | 42 | 256 | 0.9 | 1.7 | 0.00 | 0.00 | 0.00 | 70 | 1012.0 |
| 20260508222239 | 42 | 248 | 0.9 | 1.7 | 0.00 | 0.00 | 0.00 | 70 | 1011.0 |
| 20260508221739 | 43 | 283 | 1.7 | 1.7 | 0.00 | 0.00 | 0.00 | 70 | 1011.0 |
| 20260508221240 | 43 | 282 | 0.9 | 1.7 | 0.00 | 0.00 | 0.00 | 69 | 1011.0 |
| 20260508220739 | 45 | 324 | 0.9 | 1.7 | 0.00 | 0.00 | 0.00 | 68 | 1011.0 |
| 20260508220239 | 46 | 274 | 0.0 | 1.7 | 0.00 | 0.00 | 0.00 | 65 | 1011.0 |
| 20260508215739 | 47 | 289 | 0.9 | 2.6 | 0.00 | 0.00 | 0.00 | 60 | 1011.0 |
| 20260508215239 | 48 | 275 | 0.0 | 0.9 | 0.00 | 0.00 | 0.00 | 54 | 1011.0 |
| 20260508214740 | 49 | 286 | 1.7 | 2.6 | 0.00 | 0.00 | 0.00 | 56 | 1011.0 |
| 20260508214239 | 50 | 0 | 0.0 | 0.0 | 0.00 | 0.00 | 0.00 | 49 | 1011.0 |
| 20260508213739 | 51 | 303 | 0.9 | 1.7 | 0.00 | 0.00 | 0.00 | 44 | 1011.0 |
| 20260508213239 | 53 | 277 | 0.9 | 1.7 | 0.00 | 0.00 | 0.00 | 39 | 1011.0 |
| 20260508212739 | 53 | 283 | 0.9 | 0.9 | 0.00 | 0.00 | 0.00 | 36 | 1011.0 |
| 20260508212239 | 54 | 309 | 0.9 | 0.9 | 0.00 | 0.00 | 0.00 | 33 | 1011.0 |
| 20260508211739 | 55 | 322 | 0.9 | 1.7 | 0.00 | 0.00 | 0.00 | 32 | 1011.0 |
| 20260508211239 | 56 | 325 | 0.9 | 1.7 | 0.00 | 0.00 | 0.00 | 29 | 1011.0 |
| 20260508210739 | 57 | 273 | 0.0 | 0.0 | 0.00 | 0.00 | 0.00 | 30 | 1011.0 |
| 20260508210239 | 57 | 359 | 0.9 | 3.5 | 0.00 | 0.00 | 0.00 | 28 | 1011.0 |
| 20260508205739 | 58 | 312 | 0.0 | 0.9 | 0.00 | 0.00 | 0.00 | 26 | 1011.0 |
| 20260508205240 | 59 | 133 | 0.0 | 0.0 | 0.00 | 0.00 | 0.00 | 26 | 1011.0 |
| 20260508204740 | 59 | 24 | 0.0 | 0.9 | 0.00 | 0.00 | 0.00 | 24 | 1011.0 |
| 20260508204239 | 59 | 324 | 0.0 | 1.7 | 0.00 | 0.00 | 0.00 | 25 | 1011.0 |
| 20260508203740 | 59 | 346 | 0.9 | 1.7 | 0.00 | 0.00 | 0.00 | 26 | 1011.0 |
| 20260508203240 | 59 | 339 | 1.7 | 2.6 | 0.00 | 0.00 | 0.00 | 24 | 1011.0 |
| 20260508202740 | 59 | 321 | 0.9 | 2.6 | 0.00 | 0.00 | 0.00 | 26 | 1011.0 |
| 20260508202240 | 59 | 349 | 1.7 | 2.6 | 0.00 | 0.00 | 0.00 | 24 | 1011.0 |
| 20260508201741 | 59 | 339 | 1.7 | 2.6 | 0.00 | 0.00 | 0.00 | 26 | 1011.0 |
| 20260508201239 | 59 | 345 | 1.7 | 3.5 | 0.00 | 0.00 | 0.00 | 25 | 1011.0 |
| 20260508200740 | 59 | 357 | 2.6 | 4.3 | 0.00 | 0.00 | 0.00 | 24 | 1011.0 |
| 20260508200240 | 60 | 40 | 0.9 | 3.5 | 0.00 | 0.00 | 0.00 | 23 | 1011.0 |
| 20260508195740 | 60 | 40 | 1.7 | 3.5 | 0.00 | 0.00 | 0.00 | 25 | 1011.0 |
| 20260508195239 | 60 | 6 | 1.7 | 1.7 | 0.00 | 0.00 | 0.00 | 24 | 1011.0 |
| 20260508194739 | 60 | 348 | 1.7 | 3.5 | 0.00 | 0.00 | 0.00 | 25 | 1011.0 |
| 20260508194239 | 61 | 0 | 0.9 | 1.7 | 0.00 | 0.00 | 0.00 | 25 | 1011.0 |
| 20260508193741 | 61 | 334 | 2.6 | 3.5 | 0.00 | 0.00 | 0.00 | 23 | 1011.0 |
| 20260508193239 | 61 | 90 | 0.9 | 2.6 | 0.00 | 0.00 | 0.00 | 27 | 1011.0 |
| 20260508192739 | 61 | 334 | 1.7 | 3.5 | 0.00 | 0.00 | 0.00 | 26 | 1011.0 |
| 20260508191759 | 62 | 341 | 2.6 | 4.3 | 0.00 | 0.00 | 0.00 | 25 | 1011.0 |
| 20260508191239 | 62 | 323 | 3.5 | 5.2 | 0.00 | 0.00 | 0.00 | 25 | 1012.0 |
| 20260508190740 | 62 | 325 | 0.9 | 2.6 | 0.00 | 0.00 | 0.00 | 26 | 1012.0 |
| 20260508190239 | 61 | 35 | 0.9 | 2.6 | 0.00 | 0.00 | 0.00 | 27 | 1012.0 |
| 20260508185739 | 62 | 106 | 2.6 | 5.2 | 0.00 | 0.00 | 0.00 | 27 | 1012.0 |
| 20260508185239 | 61 | 337 | 2.6 | 5.2 | 0.00 | 0.00 | 0.00 | 30 | 1012.0 |
| 20260508184740 | 61 | 351 | 2.6 | 4.3 | 0.00 | 0.00 | 0.00 | 26 | 1012.0 |
| 20260508184239 | 61 | 72 | 1.7 | 2.6 | 0.00 | 0.00 | 0.00 | 26 | 1012.0 |
| 20260508183739 | 60 | 42 | 0.9 | 1.7 | 0.00 | 0.00 | 0.00 | 26 | 1012.0 |
| 20260508183239 | 60 | 101 | 1.7 | 3.5 | 0.00 | 0.00 | 0.00 | 28 | 1012.0 |
| 20260508182739 | 60 | 133 | 0.9 | 1.7 | 0.00 | 0.00 | 0.00 | 27 | 1012.0 |
| 20260508182239 | 60 | 150 | 2.6 | 3.5 | 0.00 | 0.00 | 0.00 | 24 | 1012.0 |
| 20260508181740 | 60 | 83 | 0.9 | 1.7 | 0.00 | 0.00 | 0.00 | 26 | 1012.0 |
| 20260508181241 | 59 | 315 | 1.7 | 4.3 | 0.00 | 0.00 | 0.00 | 28 | 1012.0 |
| 20260508180739 | 59 | 264 | 2.6 | 4.3 | 0.00 | 0.00 | 0.00 | 29 | 1012.0 |
| 20260508180239 | 59 | 219 | 1.7 | 3.5 | 0.00 | 0.00 | 0.00 | 27 | 1012.0 |
| 20260508175739 | 59 | 54 | 1.7 | 2.6 | 0.00 | 0.00 | 0.00 | 28 | 1012.0 |
| 20260508175240 | 59 | 334 | 0.9 | 2.6 | 0.00 | 0.00 | 0.00 | 30 | 1012.0 |
| 20260508174739 | 59 | 335 | 1.7 | 3.5 | 0.00 | 0.00 | 0.00 | 28 | 1012.0 |
| 20260508174239 | 58 | 288 | 0.9 | 2.6 | 0.00 | 0.00 | 0.00 | 30 | 1013.0 |
| 20260508173740 | 58 | 248 | 2.6 | 4.3 | 0.00 | 0.00 | 0.00 | 27 | 1013.0 |
| 20260508173239 | 59 | 267 | 3.5 | 6.1 | 0.00 | 0.00 | 0.00 | 29 | 1013.0 |
| 20260508172743 | 59 | 355 | 1.7 | 3.5 | 0.00 | 0.00 | 0.00 | 28 | 1013.0 |
| 20260508172240 | 59 | 341 | 0.0 | 2.6 | 0.00 | 0.00 | 0.00 | 30 | 1013.0 |
| 20260508171739 | 58 | 311 | 1.7 | 2.6 | 0.00 | 0.00 | 0.00 | 29 | 1013.0 |
| 20260508171239 | 57 | 156 | 1.7 | 2.6 | 0.00 | 0.00 | 0.00 | 28 | 1013.0 |
| 20260508170739 | 57 | 128 | 2.6 | 5.2 | 0.00 | 0.00 | 0.00 | 31 | 1013.0 |
| 20260508170239 | 57 | 124 | 1.7 | 2.6 | 0.00 | 0.00 | 0.00 | 27 | 1013.0 |
| 20260508165740 | 57 | 94 | 1.7 | 3.5 | 0.00 | 0.00 | 0.00 | 28 | 1013.0 |
| 20260508165239 | 58 | 67 | 1.7 | 2.6 | 0.00 | 0.00 | 0.00 | 30 | 1014.0 |
| 20260508164739 | 57 | 36 | 1.7 | 2.6 | 0.00 | 0.00 | 0.00 | 31 | 1014.0 |
| 20260508164239 | 58 | 139 | 2.6 | 5.2 | 0.00 | 0.00 | 0.00 | 28 | 1014.0 |
| 20260508163741 | 57 | 284 | 1.7 | 3.5 | 0.00 | 0.00 | 0.00 | 33 | 1014.0 |
| 20260508163239 | 56 | 322 | 1.7 | 2.6 | 0.00 | 0.00 | 0.00 | 32 | 1014.0 |
| 20260508162739 | 56 | 290 | 1.7 | 3.5 | 0.00 | 0.00 | 0.00 | 31 | 1014.0 |
| 20260508162241 | 55 | 123 | 0.9 | 2.6 | 0.00 | 0.00 | 0.00 | 30 | 1014.0 |
| 20260508161739 | 55 | 351 | 3.5 | 4.3 | 0.00 | 0.00 | 0.00 | 31 | 1014.0 |
| 20260508161240 | 55 | 356 | 1.7 | 4.3 | 0.00 | 0.00 | 0.00 | 31 | 1015.0 |
| 20260508160740 | 55 | 315 | 1.7 | 2.6 | 0.00 | 0.00 | 0.00 | 32 | 1015.0 |
| 20260508160240 | 55 | 348 | 2.6 | 5.2 | 0.00 | 0.00 | 0.00 | 32 | 1015.0 |
| 20260508155741 | 55 | 139 | 1.7 | 4.3 | 0.00 | 0.00 | 0.00 | 29 | 1015.0 |
| 20260508155240 | 54 | 341 | 0.9 | 2.6 | 0.00 | 0.00 | 0.00 | 30 | 1015.0 |
| 20260508154739 | 53 | 343 | 1.7 | 3.5 | 0.00 | 0.00 | 0.00 | 32 | 1015.0 |
| 20260508154239 | 53 | 117 | 1.7 | 2.6 | 0.00 | 0.00 | 0.00 | 30 | 1015.0 |
| 20260508153740 | 53 | 143 | 1.7 | 3.5 | 0.00 | 0.00 | 0.00 | 31 | 1015.0 |
| 20260508153240 | 53 | 81 | 1.7 | 4.3 | 0.00 | 0.00 | 0.00 | 31 | 1015.0 |
| 20260508152742 | 52 | 7 | 4.3 | 5.2 | 0.00 | 0.00 | 0.00 | 31 | 1015.0 |
| 20260508152240 | 52 | 148 | 2.6 | 3.5 | 0.00 | 0.00 | 0.00 | 30 | 1015.0 |
| 20260508151739 | 52 | 335 | 1.7 | 4.3 | 0.00 | 0.00 | 0.00 | 33 | 1016.0 |
| 20260508151240 | 52 | 61 | 0.9 | 3.5 | 0.00 | 0.00 | 0.00 | 34 | 1016.0 |
| 20260508150739 | 51 | 80 | 0.9 | 1.7 | 0.00 | 0.00 | 0.00 | 33 | 1016.0 |
| 20260508150241 | 51 | 161 | 0.0 | 0.9 | 0.00 | 0.00 | 0.00 | 31 | 1016.0 |
| 20260508145740 | 51 | 22 | 2.6 | 5.2 | 0.00 | 0.00 | 0.00 | 33 | 1016.0 |
| 20260508145240 | 51 | 338 | 2.6 | 5.2 | 0.00 | 0.00 | 0.00 | 33 | 1016.0 |
| 20260508144740 | 51 | 1 | 3.5 | 5.2 | 0.00 | 0.00 | 0.00 | 33 | 1016.0 |
| 20260508144239 | 51 | 10 | 1.7 | 4.3 | 0.00 | 0.00 | 0.00 | 35 | 1016.0 |
| 20260508143739 | 51 | 326 | 1.7 | 2.6 | 0.00 | 0.00 | 0.00 | 33 | 1016.0 |
| 20260508143240 | 51 | 43 | 0.9 | 2.6 | 0.00 | 0.00 | 0.00 | 33 | 1016.0 |
| 20260508142739 | 51 | 33 | 2.6 | 4.3 | 0.00 | 0.00 | 0.00 | 33 | 1017.0 |
| 20260508142239 | 51 | 76 | 1.7 | 3.5 | 0.00 | 0.00 | 0.00 | 31 | 1017.0 |
| 20260508141740 | 51 | 71 | 0.9 | 2.6 | 0.00 | 0.00 | 0.00 | 36 | 1017.0 |
| 20260508141239 | 51 | 333 | 1.7 | 3.5 | 0.00 | 0.00 | 0.00 | 35 | 1017.0 |
| 20260508140739 | 51 | 13 | 2.6 | 6.1 | 0.00 | 0.00 | 0.00 | 34 | 1017.0 |
| 20260508140239 | 51 | 289 | 1.7 | 3.5 | 0.00 | 0.00 | 0.00 | 33 | 1017.0 |
| 20260508135740 | 51 | 158 | 1.7 | 2.6 | 0.00 | 0.00 | 0.00 | 33 | 1017.0 |
| 20260508135240 | 51 | 342 | 1.7 | 3.5 | 0.00 | 0.00 | 0.00 | 39 | 1016.0 |
| 20260508134740 | 50 | 31 | 2.6 | 4.3 | 0.00 | 0.00 | 0.00 | 37 | 1016.0 |
| 20260508134239 | 49 | 159 | 0.0 | 1.7 | 0.00 | 0.00 | 0.00 | 36 | 1016.0 |
| 20260508133740 | 49 | 43 | 0.9 | 2.6 | 0.00 | 0.00 | 0.00 | 38 | 1016.0 |
| 20260508133239 | 49 | 84 | 1.7 | 2.6 | 0.00 | 0.00 | 0.00 | 39 | 1016.0 |
| 20260508132739 | 48 | 140 | 0.9 | 2.6 | 0.00 | 0.00 | 0.00 | 38 | 1016.0 |
| 20260508132240 | 48 | 163 | 0.9 | 2.6 | 0.00 | 0.00 | 0.00 | 40 | 1016.0 |
| 20260508131739 | 48 | 41 | 1.7 | 4.3 | 0.00 | 0.00 | 0.00 | 40 | 1016.0 |
| 20260508131239 | 48 | 122 | 0.9 | 2.6 | 0.00 | 0.00 | 0.00 | 39 | 1016.0 |
| 20260508130739 | 47 | 348 | 0.0 | 1.7 | 0.00 | 0.00 | 0.00 | 41 | 1016.0 |
| 20260508130242 | 47 | 125 | 0.0 | 0.9 | 0.00 | 0.00 | 0.00 | 40 | 1016.0 |
| 20260508125739 | 46 | 160 | 1.7 | 1.7 | 0.00 | 0.00 | 0.00 | 39 | 1016.0 |
| 20260508125240 | 46 | 84 | 0.9 | 1.7 | 0.00 | 0.00 | 0.00 | 41 | 1016.0 |
| 20260508124740 | 46 | 8 | 0.0 | 1.7 | 0.00 | 0.00 | 0.00 | 42 | 1016.0 |
| 20260508124239 | 46 | 128 | 0.9 | 1.7 | 0.00 | 0.00 | 0.00 | 41 | 1016.0 |
| 20260508123739 | 45 | 132 | 0.9 | 3.5 | 0.00 | 0.00 | 0.00 | 42 | 1016.0 |
| 20260508123239 | 45 | 39 | 0.9 | 2.6 | 0.00 | 0.00 | 0.00 | 42 | 1016.0 |
| 20260508122739 | 44 | 11 | 0.0 | 1.7 | 0.00 | 0.00 | 0.00 | 47 | 1016.0 |
| 20260508122240 | 44 | 148 | 3.5 | 5.2 | 0.00 | 0.00 | 0.00 | 43 | 1016.0 |
| 20260508121740 | 43 | 103 | 0.9 | 1.7 | 0.00 | 0.00 | 0.00 | 44 | 1016.0 |
| 20260508121241 | 43 | 161 | 1.7 | 1.7 | 0.00 | 0.00 | 0.00 | 43 | 1016.0 |
| 20260508120739 | 42 | 135 | 0.9 | 2.6 | 0.00 | 0.00 | 0.00 | 45 | 1016.0 |
| 20260508120239 | 40 | 0 | 0.0 | 0.0 | 0.00 | 0.00 | 0.00 | 47 | 1016.0 |
| 20260508115739 | 39 | 326 | 0.9 | 1.7 | 0.00 | 0.00 | 0.00 | 51 | 1016.0 |
| 20260508115240 | 38 | 237 | 0.9 | 1.7 | 0.00 | 0.00 | 0.00 | 51 | 1016.0 |
| 20260508114739 | 37 | 184 | 0.9 | 2.6 | 0.00 | 0.00 | 0.00 | 55 | 1015.0 |
| 20260508114239 | 36 | 192 | 1.7 | 3.5 | 0.00 | 0.00 | 0.00 | 56 | 1015.0 |
| 20260508113740 | 36 | 209 | 0.9 | 2.6 | 0.00 | 0.00 | 0.00 | 56 | 1015.0 |
| 20260508113240 | 36 | 244 | 0.9 | 1.7 | 0.00 | 0.00 | 0.00 | 55 | 1015.0 |
| 20260508112739 | 36 | 266 | 1.7 | 1.7 | 0.00 | 0.00 | 0.00 | 56 | 1015.0 |
| 20260508112241 | 36 | 225 | 0.9 | 1.7 | 0.00 | 0.00 | 0.00 | 57 | 1015.0 |
| 20260508111739 | 36 | 159 | 0.9 | 1.7 | 0.00 | 0.00 | 0.00 | 55 | 1015.0 |
| 20260508111241 | 36 | 309 | 0.9 | 0.9 | 0.00 | 0.00 | 0.00 | 55 | 1015.0 |
| 20260508110740 | 36 | 177 | 0.9 | 1.7 | 0.00 | 0.00 | 0.00 | 53 | 1015.0 |
| 20260508110239 | 36 | 238 | 0.9 | 1.7 | 0.00 | 0.00 | 0.00 | 56 | 1015.0 |
| 20260508105739 | 36 | 163 | 0.9 | 1.7 | 0.00 | 0.00 | 0.00 | 56 | 1015.0 |
| 20260508105239 | 36 | 206 | 1.7 | 2.6 | 0.00 | 0.00 | 0.00 | 56 | 1015.0 |
| 20260508104740 | 36 | 211 | 1.7 | 2.6 | 0.00 | 0.00 | 0.00 | 55 | 1015.0 |
| 20260508104240 | 36 | 245 | 0.0 | 0.9 | 0.00 | 0.00 | 0.00 | 55 | 1015.0 |
| 20260508103740 | 36 | 207 | 0.0 | 0.0 | 0.00 | 0.00 | 0.00 | 55 | 1015.0 |
| 20260508103239 | 36 | 191 | 1.7 | 2.6 | 0.00 | 0.00 | 0.00 | 54 | 1015.0 |
| 20260508102739 | 37 | 215 | 1.7 | 1.7 | 0.00 | 0.00 | 0.00 | 53 | 1015.0 |
| 20260508102240 | 38 | 182 | 0.9 | 1.7 | 0.00 | 0.00 | 0.00 | 53 | 1015.0 |
| 20260508101739 | 38 | 214 | 1.7 | 1.7 | 0.00 | 0.00 | 0.00 | 51 | 1015.0 |
| 20260508101241 | 39 | 254 | 0.9 | 1.7 | 0.00 | 0.00 | 0.00 | 47 | 1015.0 |
| 20260508100740 | 40 | 0 | 0.0 | 0.0 | 0.00 | 0.00 | 0.00 | 45 | 1015.0 |
| 20260508100240 | 40 | 34 | 0.9 | 0.9 | 0.00 | 0.00 | 0.00 | 44 | 1015.0 |
| 20260508095739 | 39 | 94 | 0.9 | 1.7 | 0.00 | 0.00 | 0.00 | 43 | 1015.0 |
| 20260508095239 | 39 | 104 | 1.7 | 2.6 | 0.00 | 0.00 | 0.00 | 45 | 1015.0 |
| 20260508094740 | 39 | 135 | 0.9 | 0.9 | 0.00 | 0.00 | 0.00 | 45 | 1015.0 |
| 20260508094239 | 40 | 173 | 0.0 | 0.0 | 0.00 | 0.00 | 0.00 | 46 | 1015.0 |
| 20260508093739 | 40 | 0 | 0.0 | 0.0 | 0.00 | 0.00 | 0.00 | 45 | 1015.0 |
| 20260508093239 | 41 | 197 | 1.7 | 3.5 | 0.00 | 0.00 | 0.00 | 41 | 1015.0 |
| 20260508092740 | 41 | 304 | 1.7 | 2.6 | 0.00 | 0.00 | 0.00 | 40 | 1015.0 |
| 20260508092239 | 42 | 301 | 1.7 | 2.6 | 0.00 | 0.00 | 0.00 | 40 | 1014.0 |
| 20260508091739 | 42 | 9 | 1.7 | 2.6 | 0.00 | 0.00 | 0.00 | 39 | 1014.0 |
| 20260508091240 | 42 | 39 | 3.5 | 6.1 | 0.00 | 0.00 | 0.00 | 39 | 1014.0 |
| 20260508090739 | 43 | 3 | 2.6 | 5.2 | 0.00 | 0.00 | 0.00 | 37 | 1014.0 |
| 20260508090240 | 43 | 353 | 1.7 | 5.2 | 0.00 | 0.00 | 0.00 | 37 | 1014.0 |
| 20260508085739 | 43 | 30 | 3.5 | 5.2 | 0.00 | 0.00 | 0.00 | 35 | 1014.0 |
| 20260508085239 | 43 | 15 | 3.5 | 5.2 | 0.00 | 0.00 | 0.00 | 34 | 1014.0 |
| 20260508084740 | 43 | 15 | 2.6 | 7.8 | 0.00 | 0.00 | 0.00 | 33 | 1014.0 |
| 20260508084239 | 43 | 0 | 1.7 | 3.5 | 0.00 | 0.00 | 0.00 | 33 | 1014.0 |
| 20260508083740 | 44 | 8 | 1.7 | 5.2 | 0.00 | 0.00 | 0.00 | 30 | 1014.0 |
| 20260508083240 | 44 | 19 | 2.6 | 5.2 | 0.00 | 0.00 | 0.00 | 28 | 1014.0 |
| 20260508082741 | 44 | 32 | 3.5 | 6.1 | 0.00 | 0.00 | 0.00 | 27 | 1014.0 |
| 20260508082239 | 44 | 34 | 1.7 | 4.3 | 0.00 | 0.00 | 0.00 | 26 | 1014.0 |
| 20260508081741 | 45 | 47 | 3.5 | 6.1 | 0.00 | 0.00 | 0.00 | 26 | 1014.0 |
| 20260508081239 | 44 | 31 | 2.6 | 7.0 | 0.00 | 0.00 | 0.00 | 27 | 1014.0 |
| 20260508080740 | 44 | 357 | 5.2 | 8.7 | 0.00 | 0.00 | 0.00 | 27 | 1014.0 |
| 20260508080239 | 44 | 6 | 2.6 | 4.3 | 0.00 | 0.00 | 0.00 | 27 | 1014.0 |
| 20260508075739 | 44 | 0 | 2.6 | 7.0 | 0.00 | 0.00 | 0.00 | 28 | 1014.0 |
| 20260508075239 | 44 | 6 | 3.5 | 6.1 | 0.00 | 0.00 | 0.00 | 27 | 1014.0 |
| 20260508074739 | 44 | 2 | 4.3 | 7.8 | 0.00 | 0.00 | 0.00 | 27 | 1014.0 |
| 20260508074240 | 44 | 2 | 3.5 | 7.8 | 0.00 | 0.00 | 0.00 | 28 | 1014.0 |
| 20260508073739 | 44 | 13 | 4.3 | 10.4 | 0.00 | 0.00 | 0.00 | 27 | 1014.0 |
| 20260508073242 | 44 | 21 | 2.6 | 5.2 | 0.00 | 0.00 | 0.00 | 27 | 1014.0 |
| 20260508072739 | 44 | 12 | 3.5 | 5.2 | 0.00 | 0.00 | 0.00 | 29 | 1014.0 |
| 20260508072239 | 44 | 13 | 1.7 | 4.3 | 0.00 | 0.00 | 0.00 | 29 | 1014.0 |
| 20260508071739 | 44 | 21 | 4.3 | 12.2 | 0.00 | 0.00 | 0.00 | 29 | 1014.0 |
| 20260508071240 | 44 | 52 | 1.7 | 4.3 | 0.00 | 0.00 | 0.00 | 29 | 1014.0 |
| 20260508070739 | 44 | 5 | 5.2 | 8.7 | 0.00 | 0.00 | 0.00 | 28 | 1014.0 |
| 20260508070240 | 43 | 359 | 3.5 | 9.6 | 0.00 | 0.00 | 0.00 | 30 | 1014.0 |
| 20260508065739 | 42 | 9 | 3.5 | 5.2 | 0.00 | 0.00 | 0.00 | 31 | 1014.0 |
| 20260508065243 | 41 | 26 | 2.6 | 6.1 | 0.00 | 0.00 | 0.00 | 36 | 1014.0 |
| 20260508064740 | 40 | 347 | 2.6 | 5.2 | 0.00 | 0.00 | 0.00 | 39 | 1014.0 |
| 20260508064242 | 41 | 100 | 0.0 | 0.9 | 0.00 | 0.00 | 0.00 | 36 | 1014.0 |
| 20260508063740 | 40 | 17 | 0.9 | 1.7 | 0.00 | 0.00 | 0.00 | 39 | 1014.0 |
| 20260508063240 | 39 | 175 | 0.9 | 2.6 | 0.00 | 0.00 | 0.00 | 43 | 1014.0 |
| 20260508062739 | 37 | 120 | 1.7 | 3.5 | 0.00 | 0.00 | 0.00 | 54 | 1014.0 |
| 20260508062239 | 36 | 168 | 1.7 | 4.3 | 0.00 | 0.00 | 0.00 | 57 | 1014.0 |
| 20260508061739 | 35 | 161 | 2.6 | 3.5 | 0.00 | 0.00 | 0.00 | 63 | 1014.0 |
| 20260508061239 | 35 | 212 | 1.7 | 3.5 | 0.00 | 0.00 | 0.00 | 64 | 1014.0 |
| 20260508060739 | 35 | 199 | 2.6 | 3.5 | 0.00 | 0.00 | 0.00 | 70 | 1014.0 |
| 20260508060239 | 35 | 192 | 0.9 | 1.7 | 0.00 | 0.00 | 0.00 | 68 | 1014.0 |
| 20260508055741 | 34 | 191 | 1.7 | 2.6 | 0.00 | 0.00 | 0.00 | 77 | 1014.0 |
| 20260508055239 | 34 | 242 | 0.9 | 1.7 | 0.00 | 0.00 | 0.00 | 77 | 1014.0 |
| 20260508054739 | 34 | 200 | 2.6 | 3.5 | 0.00 | 0.00 | 0.00 | 73 | 1014.0 |
| 20260508054240 | 33 | 132 | 0.0 | 0.9 | 0.00 | 0.00 | 0.00 | 77 | 1014.0 |
| 20260508053739 | 34 | 326 | 0.9 | 2.6 | 0.00 | 0.00 | 0.00 | 79 | 1014.0 |
| 20260508053239 | 34 | 302 | 0.9 | 1.7 | 0.00 | 0.00 | 0.00 | 79 | 1014.0 |
| 20260508052739 | 35 | 235 | 0.9 | 1.7 | 0.00 | 0.00 | 0.00 | 73 | 1014.0 |
| 20260508052239 | 35 | 206 | 0.9 | 2.6 | 0.00 | 0.00 | 0.00 | 73 | 1014.0 |
| 20260508051739 | 34 | 199 | 0.9 | 1.7 | 0.00 | 0.00 | 0.00 | 73 | 1014.0 |
| 20260508051239 | 33 | 198 | 1.7 | 2.6 | 0.00 | 0.00 | 0.00 | 76 | 1014.0 |
| 20260508050741 | 33 | 0 | 0.0 | 0.0 | 0.00 | 0.00 | 0.00 | 80 | 1014.0 |
| 20260508050239 | 34 | 0 | 0.0 | 0.0 | 0.00 | 0.00 | 0.00 | 75 | 1014.0 |
| 20260508045739 | 33 | 210 | 1.7 | 3.5 | 0.00 | 0.00 | 0.00 | 76 | 1014.0 |
| 20260508045239 | 32 | 208 | 1.7 | 3.5 | 0.00 | 0.00 | 0.00 | 77 | 1014.0 |
| 20260508044744 | 32 | 216 | 0.9 | 1.7 | 0.00 | 0.00 | 0.00 | 83 | 1014.0 |
| 20260508044239 | 32 | 0 | 0.0 | 0.0 | 0.00 | 0.00 | 0.00 | 82 | 1014.0 |